YR259 LRCL-LRCL

Flight info

Callsign YR259
Flight time 0h 11m
Altitude 2000
Route VFR
Aircraft C172/L-SFG/C

Departure

Time 2026-04-30 09:53
Airport Avram Iancu Cluj International Airport (LRCL)

Arrival

Time 2026-04-30 10:04
Airport Avram Iancu Cluj International Airport (LRCL)
Time Latitude Longitude Altitude Speed Heading
2026-04-30 09:40 46.78673 23.69822 1013 ft 0 kts 259°
2026-04-30 09:47 46.78672 23.69816 1013 ft 2 kts 259°
2026-04-30 09:47 46.78664 23.69752 1013 ft 10 kts 259°
2026-04-30 09:47 46.78646 23.69622 1014 ft 15 kts 260°
2026-04-30 09:47 46.78622 23.69440 1015 ft 20 kts 257°
2026-04-30 09:48 46.78592 23.69220 1017 ft 23 kts 258°
2026-04-30 09:48 46.78558 23.68974 1017 ft 26 kts 260°
2026-04-30 09:48 46.78522 23.68697 1017 ft 28 kts 255°
2026-04-30 09:48 46.78483 23.68413 1020 ft 26 kts 259°
2026-04-30 09:49 46.78507 23.68232 1020 ft 15 kts 312°
2026-04-30 09:49 46.78493 23.68108 1020 ft 14 kts 251°
2026-04-30 09:49 46.78459 23.67955 1021 ft 17 kts 253°
2026-04-30 09:49 46.78419 23.67780 1024 ft 19 kts 252°
2026-04-30 09:50 46.78375 23.67581 1026 ft 22 kts 254°
2026-04-30 09:50 46.78338 23.67355 1027 ft 23 kts 261°
2026-04-30 09:50 46.78339 23.67303 1027 ft 0 kts 289°
2026-04-30 09:51 46.78343 23.67289 1028 ft 4 kts 291°
2026-04-30 09:51 46.78382 23.67218 1029 ft 13 kts 318°
2026-04-30 09:51 46.78464 23.67175 1029 ft 3 kts 80°
2026-04-30 09:52 46.78466 23.67185 1029 ft 0 kts 71°
2026-04-30 09:52 46.78468 23.67196 1029 ft 12 kts 72°
2026-04-30 09:52 46.78548 23.67629 1025 ft 69 kts 69°
2026-04-30 09:52 46.78725 23.68377 1171 ft 78 kts 74°
2026-04-30 09:53 46.79084 23.68830 1342 ft 69 kts 350°
2026-04-30 09:53 46.79548 23.68571 1519 ft 77 kts 333°
2026-04-30 09:53 46.80062 23.68217 1670 ft 88 kts 341°
2026-04-30 09:53 46.80655 23.67958 1876 ft 87 kts 345°
2026-04-30 09:54 46.81236 23.67735 2002 ft 85 kts 343°
2026-04-30 09:54 46.81531 23.67123 2091 ft 89 kts 246°
2026-04-30 09:54 46.81354 23.66256 2193 ft 92 kts 254°
2026-04-30 09:54 46.81151 23.65351 2242 ft 98 kts 252°
2026-04-30 09:55 46.80962 23.64385 2289 ft 100 kts 256°
2026-04-30 09:55 46.80757 23.63426 2352 ft 97 kts 253°
2026-04-30 09:55 46.80513 23.62528 2414 ft 95 kts 248°
2026-04-30 09:55 46.80247 23.61654 2482 ft 93 kts 250°
2026-04-30 09:56 46.79895 23.60844 2502 ft 96 kts 211°
2026-04-30 09:56 46.79239 23.60745 2476 ft 99 kts 164°
2026-04-30 09:56 46.78556 23.61015 2391 ft 99 kts 158°
2026-04-30 09:56 46.77947 23.61345 2268 ft 89 kts 151°
2026-04-30 09:57 46.77613 23.61998 2136 ft 86 kts 107°
2026-04-30 09:57 46.77551 23.62851 1962 ft 85 kts 80°
2026-04-30 09:57 46.77672 23.63647 1844 ft 77 kts 70°
2026-04-30 09:57 46.77850 23.64398 1687 ft 80 kts 69°
2026-04-30 09:58 46.78002 23.65191 1548 ft 80 kts 70°
2026-04-30 09:58 46.78188 23.65972 1356 ft 88 kts 69°
2026-04-30 09:58 46.78364 23.66735 1169 ft 68 kts 73°
2026-04-30 09:58 46.78503 23.67364 1068 ft 65 kts 65°
2026-04-30 09:59 46.78730 23.68411 1020 ft 67 kts 73°
2026-04-30 09:59 46.79063 23.69891 1303 ft 73 kts 72°
2026-04-30 10:00 46.79540 23.71172 1584 ft 78 kts
2026-04-30 10:00 46.80080 23.70984 1739 ft 82 kts 338°
2026-04-30 10:01 46.81111 23.70074 2042 ft 94 kts 286°
2026-04-30 10:01 46.80972 23.69098 2064 ft 110 kts 244°
2026-04-30 10:01 46.80591 23.68098 2121 ft 113 kts 239°
2026-04-30 10:02 46.79943 23.66045 2309 ft 111 kts 251°
2026-04-30 10:02 46.79707 23.64973 2384 ft 112 kts 256°
2026-04-30 10:02 46.79442 23.63874 2428 ft 115 kts 241°
2026-04-30 10:02 46.78856 23.63321 2402 ft 103 kts 172°
2026-04-30 10:03 46.78167 23.63567 2333 ft 100 kts 158°
2026-04-30 10:03 46.77734 23.64168 2147 ft 82 kts 90°
2026-04-30 10:03 46.77932 23.64969 1665 ft 84 kts 63°
2026-04-30 10:03 46.78122 23.65690 1437 ft 71 kts 73°
2026-04-30 10:04 46.78248 23.66242 1299 ft 66 kts 69°
2026-04-30 10:04 46.78351 23.66680 1203 ft 63 kts 70°
2026-04-30 10:04 46.78491 23.67299 1081 ft 63 kts 71°
2026-04-30 10:04 46.78612 23.67847 1023 ft 46 kts 71°
2026-04-30 10:05 46.78678 23.68137 1020 ft 1 kts 78°
2026-04-30 10:17 46.78863 23.68989 1077 ft 80 kts 72°
2026-04-30 10:17 46.79397 23.70301 1383 ft 78 kts 14°
2026-04-30 10:17 46.79917 23.70156 1619 ft 72 kts 335°
2026-04-30 10:18 46.80391 23.70005 1883 ft 71 kts 339°
2026-04-30 10:18 46.80889 23.69827 2101 ft 76 kts 343°
2026-04-30 10:18 46.81097 23.69181 2263 ft 89 kts 254°
2026-04-30 10:19 46.80681 23.67402 2525 ft 95 kts 257°
2026-04-30 10:19 46.80547 23.66428 2688 ft 101 kts 254°
2026-04-30 10:19 46.80268 23.65474 2732 ft 102 kts 246°
2026-04-30 10:19 46.79728 23.64958 2656 ft 106 kts 169°
2026-04-30 10:20 46.78983 23.65165 2271 ft 107 kts 171°
2026-04-30 10:20 46.78273 23.66451 1493 ft 90 kts 73°
2026-04-30 10:20 46.78468 23.67212 1126 ft 76 kts 69°
2026-04-30 10:21 46.78611 23.67839 1029 ft 49 kts 69°
2026-04-30 10:21 46.78696 23.68222 1020 ft 32 kts 72°
2026-04-30 10:21 46.78754 23.68494 1020 ft 25 kts 68°
2026-04-30 10:21 46.78812 23.68756 1017 ft 28 kts 75°
2026-04-30 10:22 46.78873 23.69033 1016 ft 28 kts 68°
2026-04-30 10:22 46.78819 23.69203 1014 ft 18 kts 160°
2026-04-30 10:22 46.78712 23.69256 1015 ft 13 kts 167°
2026-04-30 10:22 46.78701 23.69302 1014 ft 4 kts 72°
2026-04-30 10:23 46.78709 23.69337 1014 ft 4 kts 75°
2026-04-30 10:23 46.78713 23.69358 1014 ft 0 kts 70°